Private Wetterstation Wechselburg
Wetterdaten: Freitag, 27.03.2020
Datum Zeit Temp. +2m Bodentemp. Temp.+5cm Temp. Wind Windchill X Diff Temp. Feuchte +2m Feuchte +5cm Luftdruck Regen Wind Richtung Richtung Sonnenschein Taupunkt Windchill Windben
27.03.2020 00:00 3,1 C 6,3 C 2,2 C 2,7 C 1,8 C 0,0 C 62 % 65 % 1025,2 hPa 0,0 l/m 1,1 km/h (1 Bft) NO 45 0 min -3,5 C 1,8 C 0,0 km/h (0 Bft)
27.03.2020 00:05 2,9 C 6,3 C 1,9 C 2,4 C 1,5 C 0,0 C 62 % 65 % 1025,2 hPa 0,0 l/m 0,2 km/h (0 Bft) O-NO 67 0 min -3,6 C 1,5 C 0,0 km/h (0 Bft)
27.03.2020 00:10 2,7 C 6,3 C 1,6 C 2,2 C 1,1 C 0,0 C 61 % 66 % 1025,2 hPa 0,0 l/m 0,0 km/h (0 Bft) O 90 0 min -4,1 C 1,1 C 0,0 km/h (0 Bft)
27.03.2020 00:15 2,4 C 6,3 C 1,1 C 1,8 C 0,5 C 0,0 C 61 % 67 % 1025,2 hPa 0,0 l/m 0,0 km/h (0 Bft) O-NO 67 0 min -4,3 C 0,5 C 0,0 km/h (0 Bft)
27.03.2020 00:20 2,3 C 6,3 C 1,0 C 1,6 C 0,3 C 0,0 C 62 % 68 % 1024,8 hPa 0,0 l/m 0,0 km/h (0 Bft) NO 45 0 min -4,2 C 0,3 C 0,0 km/h (0 Bft)
27.03.2020 00:25 2,0 C 6,3 C 0,7 C 1,4 C 0,2 C 0,0 C 62 % 68 % 1024,8 hPa 0,0 l/m 0,0 km/h (0 Bft) O-NO 67 0 min -4,5 C 0,2 C 0,0 km/h (0 Bft)
27.03.2020 00:30 1,9 C 6,3 C 0,7 C 1,3 C 0,1 C 0,0 C 63 % 69 % 1024,8 hPa 0,0 l/m 0,0 km/h (0 Bft) O-NO 67 0 min -4,4 C 0,1 C 0,0 km/h (0 Bft)
27.03.2020 00:35 1,7 C 6,2 C 0,4 C 1,2 C 0,1 C 0,0 C 64 % 70 % 1024,8 hPa 0,0 l/m 0,0 km/h (0 Bft) O-NO 67 0 min -4,4 C 0,1 C 0,0 km/h (0 Bft)
27.03.2020 00:40 1,6 C 6,2 C 0,4 C 1,1 C 0,1 C 0,0 C 64 % 70 % 1024,8 hPa 0,0 l/m 0,0 km/h (0 Bft) NO 45 0 min -4,5 C 0,1 C 0,0 km/h (0 Bft)
27.03.2020 00:45 1,6 C 6,2 C 0,6 C 1,2 C 0,3 C 0,0 C 65 % 71 % 1024,8 hPa 0,0 l/m 0,8 km/h (0 Bft) NO 45 0 min -4,3 C 0,3 C 3,9 km/h (1 Bft)
27.03.2020 00:50 1,7 C 6,2 C 0,9 C 1,3 C 0,6 C 0,0 C 65 % 71 % 1024,8 hPa 0,0 l/m 1,6 km/h (1 Bft) NO 45 0 min -4,2 C 0,6 C 2,4 km/h (1 Bft)
27.03.2020 00:55 1,9 C 6,2 C 1,0 C 1,4 C 0,4 C 0,0 C 66 % 71 % 1024,8 hPa 0,0 l/m 2,9 km/h (1 Bft) O-NO 67 0 min -3,8 C 0,4 C 6,8 km/h (2 Bft)
27.03.2020 01:00 2,0 C 6,2 C 1,1 C 1,4 C 0,2 C 0,0 C 66 % 71 % 1024,8 hPa 0,0 l/m 3,7 km/h (1 Bft) O-NO 67 0 min -3,7 C 0,2 C 7,6 km/h (2 Bft)
27.03.2020 01:05 2,1 C 6,2 C 1,3 C 1,5 C 0,2 C 0,0 C 66 % 71 % 1024,8 hPa 0,0 l/m 4,3 km/h (1 Bft) O-NO 67 0 min -3,6 C 0,2 C 6,1 km/h (2 Bft)
27.03.2020 01:10 2,2 C 6,2 C 1,3 C 1,7 C 0,6 C 0,0 C 66 % 70 % 1024,8 hPa 0,0 l/m 3,9 km/h (1 Bft) O-NO 67 0 min -3,5 C 0,6 C 2,9 km/h (1 Bft)
27.03.2020 01:15 2,3 C 6,2 C 1,5 C 1,8 C 0,8 C 0,0 C 66 % 70 % 1024,8 hPa 0,0 l/m 3,9 km/h (1 Bft) NO 45 0 min -3,4 C 0,8 C 4,7 km/h (1 Bft)
27.03.2020 01:20 2,4 C 6,2 C 1,7 C 1,9 C 0,8 C 0,0 C 66 % 70 % 1024,2 hPa 0,0 l/m 4,2 km/h (1 Bft) NO 45 0 min -3,3 C 0,8 C 3,7 km/h (1 Bft)
27.03.2020 01:25 2,7 C 6,2 C 1,9 C 2,2 C 1,2 C 0,0 C 65 % 68 % 1024,2 hPa 0,0 l/m 3,7 km/h (1 Bft) O-NO 67 0 min -3,2 C 1,2 C 9,3 km/h (2 Bft)
27.03.2020 01:30 2,7 C 6,2 C 1,7 C 2,4 C 1,8 C 0,0 C 65 % 68 % 1024,2 hPa 0,0 l/m 2,3 km/h (1 Bft) W-SW 247 0 min -3,2 C 1,8 C 0,0 km/h (0 Bft)
27.03.2020 01:35 2,4 C 6,2 C 1,2 C 2,1 C 1,5 C 0,0 C 65 % 69 % 1024,2 hPa 0,0 l/m 0,8 km/h (0 Bft) S-SW 202 0 min -3,5 C 1,5 C 0,0 km/h (0 Bft)
27.03.2020 01:40 2,3 C 6,1 C 1,0 C 1,9 C 1,0 C 0,0 C 65 % 69 % 1024,4 hPa 0,0 l/m 0,3 km/h (0 Bft) W 270 0 min -3,6 C 1,0 C 0,0 km/h (0 Bft)
27.03.2020 01:45 1,9 C 6,1 C 0,7 C 1,4 C 0,4 C 0,0 C 64 % 69 % 1024,4 hPa 0,0 l/m 0,3 km/h (0 Bft) SW 225 0 min -4,2 C 0,4 C 0,0 km/h (0 Bft)
27.03.2020 01:50 1,7 C 6,1 C 0,7 C 1,2 C 0,2 C 0,0 C 64 % 69 % 1024,4 hPa 0,0 l/m 0,0 km/h (0 Bft) W-SW 247 0 min -4,4 C 0,2 C 0,0 km/h (0 Bft)
27.03.2020 01:55 1,5 C 6,2 C 0,4 C 0,9 C -0,2 C 0,0 C 64 % 70 % 1024,4 hPa 0,0 l/m 0,0 km/h (0 Bft) W-SW 247 0 min -4,6 C -0,2 C 0,0 km/h (0 Bft)
27.03.2020 02:00 1,4 C 6,2 C 0,3 C 0,8 C -0,3 C 0,0 C 65 % 71 % 1023,9 hPa 0,0 l/m 0,0 km/h (0 Bft) W 270 0 min -4,4 C -0,3 C 0,0 km/h (0 Bft)
27.03.2020 02:05 1,2 C 6,2 C 0,3 C 0,6 C -0,5 C 0,0 C 66 % 71 % 1023,9 hPa 0,0 l/m 0,0 km/h (0 Bft) NW 315 0 min -4,4 C -0,5 C 0,0 km/h (0 Bft)
27.03.2020 02:10 1,2 C 6,2 C 0,1 C 0,6 C -0,5 C 0,0 C 66 % 72 % 1023,9 hPa 0,0 l/m 0,0 km/h (0 Bft) N-NO 22 0 min -4,4 C -0,5 C 0,0 km/h (0 Bft)
27.03.2020 02:15 1,1 C 6,2 C -0,1 C 0,5 C -0,7 C 0,0 C 66 % 72 % 1023,9 hPa 0,0 l/m 0,0 km/h (0 Bft) W 270 0 min -4,5 C -0,7 C 0,0 km/h (0 Bft)
27.03.2020 02:20 0,8 C 6,2 C -0,1 C 0,3 C -0,7 C 0,0 C 66 % 73 % 1024,2 hPa 0,0 l/m 0,0 km/h (0 Bft) NO 45 0 min -4,8 C -0,7 C 0,0 km/h (0 Bft)
27.03.2020 02:25 0,7 C 6,2 C -0,3 C 0,2 C -0,9 C 0,0 C 67 % 73 % 1024,2 hPa 0,0 l/m 0,0 km/h (0 Bft) W-SW 247 0 min -4,7 C -0,9 C 0,0 km/h (0 Bft)
27.03.2020 02:30 0,7 C 6,0 C -0,4 C 0,1 C -1,1 C 0,0 C 67 % 74 % 1024,2 hPa 0,0 l/m 0,0 km/h (0 Bft) W-SW 247 0 min -4,7 C -1,1 C 0,0 km/h (0 Bft)
27.03.2020 02:35 0,4 C 6,0 C -0,5 C -0,2 C -1,4 C 0,0 C 67 % 74 % 1024,2 hPa 0,0 l/m 0,0 km/h (0 Bft) W-SW 247 0 min -5,0 C -1,4 C 0,0 km/h (0 Bft)
27.03.2020 02:40 0,3 C 6,0 C -0,5 C -0,3 C -1,5 C 0,0 C 68 % 74 % 1024,2 hPa 0,0 l/m 0,0 km/h (0 Bft) O-NO 67 0 min -4,9 C -1,5 C 0,0 km/h (0 Bft)
27.03.2020 02:45 0,2 C 6,0 C -0,7 C -0,4 C -1,5 C 0,0 C 68 % 75 % 1024,2 hPa 0,0 l/m 0,0 km/h (0 Bft) O-NO 67 0 min -5,0 C -1,5 C 0,0 km/h (0 Bft)
27.03.2020 02:50 0,1 C 6,0 C -0,8 C -0,4 C -1,4 C 0,0 C 69 % 75 % 1024,2 hPa 0,0 l/m 0,0 km/h (0 Bft) NO 45 0 min -4,9 C -1,4 C 0,0 km/h (0 Bft)
27.03.2020 02:55 0,0 C 6,1 C -0,9 C -0,4 C -1,3 C 0,0 C 69 % 76 % 1024,2 hPa 0,0 l/m 0,0 km/h (0 Bft) NO 45 0 min -5,0 C -1,3 C 0,0 km/h (0 Bft)
27.03.2020 03:00 -0,1 C 6,1 C -0,9 C -0,5 C -1,4 C 0,0 C 70 % 76 % 1023,9 hPa 0,0 l/m 0,0 km/h (0 Bft) NW 315 0 min -4,9 C -1,4 C 0,0 km/h (0 Bft)
27.03.2020 03:05 -0,1 C 6,1 C -0,9 C -0,6 C -1,5 C 0,0 C 70 % 76 % 1023,9 hPa 0,0 l/m 0,0 km/h (0 Bft) W-NW 292 0 min -4,9 C -1,5 C 0,0 km/h (0 Bft)
27.03.2020 03:10 -0,1 C 6,1 C -0,9 C -0,6 C -1,5 C 0,0 C 70 % 76 % 1023,9 hPa 0,0 l/m 0,0 km/h (0 Bft) N 360 0 min -4,9 C -1,5 C 0,0 km/h (0 Bft)
27.03.2020 03:15 -0,1 C 6,1 C -1,0 C -0,5 C -1,4 C 0,0 C 71 % 76 % 1023,9 hPa 0,0 l/m 0,0 km/h (0 Bft) N-NW 337 0 min -4,7 C -1,4 C 0,0 km/h (0 Bft)
27.03.2020 03:20 -0,3 C 6,0 C -1,0 C -0,7 C -1,4 C 0,0 C 71 % 77 % 1024,1 hPa 0,0 l/m 0,0 km/h (0 Bft) N 360 0 min -4,9 C -1,4 C 0,0 km/h (0 Bft)
27.03.2020 03:25 -0,3 C 6,0 C -1,0 C -0,6 C -1,2 C 0,0 C 71 % 77 % 1024,1 hPa 0,0 l/m 0,0 km/h (0 Bft) NO 45 0 min -4,9 C -1,2 C 1,6 km/h (1 Bft)
27.03.2020 03:30 -0,4 C 6,0 C -1,1 C -0,6 C -1,0 C 0,0 C 72 % 77 % 1024,1 hPa 0,0 l/m 0,0 km/h (0 Bft) SW 225 0 min -4,8 C -1,0 C 1,6 km/h (1 Bft)
27.03.2020 03:35 -0,5 C 6,0 C -1,0 C -0,8 C -1,4 C 0,0 C 72 % 77 % 1024,1 hPa 0,0 l/m 0,2 km/h (0 Bft) SW 225 0 min -4,9 C -1,4 C 0,0 km/h (0 Bft)
27.03.2020 03:40 -0,5 C 6,0 C -1,1 C -0,9 C -1,7 C 0,0 C 72 % 77 % 1023,6 hPa 0,0 l/m 0,2 km/h (0 Bft) NW 315 0 min -4,9 C -1,7 C 0,0 km/h (0 Bft)
27.03.2020 03:45 -0,6 C 6,0 C -1,2 C -1,0 C -1,7 C 0,0 C 72 % 78 % 1023,6 hPa 0,0 l/m 0,0 km/h (0 Bft) N-NO 22 0 min -5,0 C -1,7 C 0,0 km/h (0 Bft)
27.03.2020 03:50 -0,5 C 6,0 C -1,3 C -0,9 C -1,8 C 0,0 C 72 % 78 % 1023,6 hPa 0,0 l/m 0,0 km/h (0 Bft) N-NO 22 0 min -4,9 C -1,8 C 0,0 km/h (0 Bft)
27.03.2020 03:55 -0,7 C 6,0 C -1,3 C -1,1 C -1,9 C 0,0 C 73 % 78 % 1023,6 hPa 0,0 l/m 0,0 km/h (0 Bft) SW 225 0 min -4,9 C -1,9 C 0,0 km/h (0 Bft)
27.03.2020 04:00 -0,8 C 6,0 C -1,4 C -1,2 C -1,9 C 0,0 C 73 % 78 % 1024,0 hPa 0,0 l/m 0,0 km/h (0 Bft) W-SW 247 0 min -5,0 C -1,9 C 0,0 km/h (0 Bft)
27.03.2020 04:05 -0,7 C 6,0 C -1,4 C -1,1 C -1,8 C 0,0 C 73 % 79 % 1024,0 hPa 0,0 l/m 0,0 km/h (0 Bft) NO 45 0 min -4,9 C -1,8 C 0,0 km/h (0 Bft)
27.03.2020 04:10 -0,7 C 6,0 C -1,4 C -1,0 C -1,5 C 0,0 C 74 % 78 % 1024,0 hPa 0,0 l/m 0,0 km/h (0 Bft) O-NO 67 0 min -4,7 C -1,5 C 0,0 km/h (0 Bft)
27.03.2020 04:15 -0,7 C 5,9 C -1,3 C -0,9 C -1,3 C 0,0 C 74 % 79 % 1024,0 hPa 0,0 l/m 0,0 km/h (0 Bft) O-NO 67 0 min -4,7 C -1,3 C 0,0 km/h (0 Bft)
27.03.2020 04:20 -0,7 C 5,9 C -1,3 C -0,9 C -1,2 C 0,0 C 75 % 79 % 1023,8 hPa 0,0 l/m 0,2 km/h (0 Bft) NO 45 0 min -4,6 C -1,2 C 0,0 km/h (0 Bft)
27.03.2020 04:25 -0,5 C 5,9 C -1,3 C -0,8 C -1,3 C 0,0 C 75 % 79 % 1023,8 hPa 0,0 l/m 0,2 km/h (0 Bft) O-NO 67 0 min -4,4 C -1,3 C 0,0 km/h (0 Bft)
27.03.2020 04:30 -0,7 C 5,9 C -1,4 C -1,0 C -1,6 C 0,0 C 75 % 79 % 1023,8 hPa 0,0 l/m 0,0 km/h (0 Bft) O-NO 67 0 min -4,6 C -1,6 C 0,0 km/h (0 Bft)
27.03.2020 04:35 -0,9 C 5,9 C -1,5 C -1,2 C -1,9 C 0,0 C 75 % 79 % 1023,8 hPa 0,0 l/m 0,0 km/h (0 Bft) O-NO 67 0 min -4,8 C -1,9 C 0,0 km/h (0 Bft)
27.03.2020 04:40 -0,9 C 5,9 C -1,6 C -1,3 C -2,0 C 0,0 C 75 % 79 % 1023,4 hPa 0,0 l/m 0,0 km/h (0 Bft) O-NO 67 0 min -4,8 C -2,0 C 0,0 km/h (0 Bft)
27.03.2020 04:45 -1,0 C 5,9 C -1,6 C -1,3 C -1,8 C 0,0 C 75 % 79 % 1023,4 hPa 0,0 l/m 0,0 km/h (0 Bft) O-NO 67 0 min -4,9 C -1,8 C 0,0 km/h (0 Bft)
27.03.2020 04:50 -0,9 C 5,9 C -1,5 C -1,1 C -1,4 C 0,0 C 75 % 79 % 1023,4 hPa 0,0 l/m 0,0 km/h (0 Bft) O-NO 67 0 min -4,8 C -1,4 C 0,0 km/h (0 Bft)
27.03.2020 04:55 -0,8 C 5,9 C -1,3 C -0,9 C -1,1 C 0,0 C 76 % 79 % 1023,4 hPa 0,0 l/m 0,0 km/h (0 Bft) O-NO 67 0 min -4,5 C -1,1 C 0,0 km/h (0 Bft)
27.03.2020 05:00 -0,7 C 5,9 C -1,3 C -0,9 C -1,2 C 0,0 C 76 % 79 % 1023,6 hPa 0,0 l/m 0,0 km/h (0 Bft) O-NO 67 0 min -4,4 C -1,2 C 0,0 km/h (0 Bft)
27.03.2020 05:05 -0,5 C 5,7 C -1,0 C -0,7 C -1,0 C 0,0 C 76 % 80 % 1023,6 hPa 0,0 l/m 0,5 km/h (0 Bft) N 360 0 min -4,2 C -1,0 C 3,7 km/h (1 Bft)
27.03.2020 05:10 -0,1 C 5,7 C -0,8 C -0,4 C -0,9 C 0,0 C 77 % 79 % 1023,6 hPa 0,0 l/m 0,8 km/h (0 Bft) W-SW 247 0 min -3,6 C -0,9 C 0,0 km/h (0 Bft)
27.03.2020 05:15 -0,1 C 5,7 C -0,9 C -0,3 C -0,8 C 0,0 C 76 % 79 % 1023,6 hPa 0,0 l/m 0,5 km/h (0 Bft) NO 45 0 min -3,8 C -0,8 C 0,0 km/h (0 Bft)
27.03.2020 05:20 -0,1 C 5,7 C -0,6 C -0,4 C -0,9 C 0,0 C 76 % 79 % 1023,6 hPa 0,0 l/m 0,2 km/h (0 Bft) O 90 0 min -3,8 C -0,9 C 0,0 km/h (0 Bft)
27.03.2020 05:25 -0,1 C 5,7 C -0,6 C -0,4 C -0,9 C 0,0 C 76 % 78 % 1023,6 hPa 0,0 l/m 0,2 km/h (0 Bft) O-NO 67 0 min -3,8 C -0,9 C 0,0 km/h (0 Bft)
27.03.2020 05:30 -0,1 C 5,7 C -0,7 C -0,4 C -0,9 C 0,0 C 76 % 78 % 1023,6 hPa 0,0 l/m 0,0 km/h (0 Bft) O 90 0 min -3,8 C -0,9 C 0,0 km/h (0 Bft)
27.03.2020 05:35 -0,1 C 5,7 C -0,8 C -0,4 C -1,0 C 0,0 C 76 % 78 % 1023,6 hPa 0,0 l/m 0,0 km/h (0 Bft) O-NO 67 0 min -3,8 C -1,0 C 0,0 km/h (0 Bft)
27.03.2020 05:40 -0,1 C 5,7 C -0,9 C -0,4 C -1,1 C 0,0 C 75 % 78 % 1023,2 hPa 0,0 l/m 0,0 km/h (0 Bft) O-NO 67 0 min -4,0 C -1,1 C 0,0 km/h (0 Bft)
27.03.2020 05:45 -0,1 C 5,7 C -0,8 C -0,4 C -1,1 C 0,0 C 76 % 78 % 1023,2 hPa 0,0 l/m 0,0 km/h (0 Bft) O 90 0 min -3,8 C -1,1 C 0,0 km/h (0 Bft)
27.03.2020 05:50 0,1 C 5,7 C -0,8 C -0,3 C -1,0 C 0,0 C 76 % 78 % 1023,2 hPa 0,0 l/m 0,0 km/h (0 Bft) N-NO 22 0 min -3,6 C -1,0 C 0,0 km/h (0 Bft)
27.03.2020 05:55 0,0 C 5,7 C -0,5 C -0,3 C -0,9 C 0,0 C 76 % 79 % 1023,2 hPa 0,0 l/m 0,3 km/h (0 Bft) NO 45 0 min -3,7 C -0,9 C 1,9 km/h (1 Bft)
27.03.2020 06:00 0,1 C 5,6 C -0,3 C -0,2 C -0,9 C 0,0 C 76 % 79 % 1023,4 hPa 0,0 l/m 0,6 km/h (0 Bft) O-NO 67 0 min -3,6 C -0,9 C 2,6 km/h (1 Bft)
27.03.2020 06:05 0,3 C 5,6 C -0,1 C 0,0 C -0,6 C 0,0 C 75 % 78 % 1023,4 hPa 0,0 l/m 0,8 km/h (0 Bft) O-NO 67 0 min -3,6 C -0,6 C 0,0 km/h (0 Bft)
27.03.2020 06:10 0,2 C 5,6 C -0,1 C 0,0 C -0,5 C 0,0 C 75 % 77 % 1023,4 hPa 0,0 l/m 0,5 km/h (0 Bft) O-NO 67 0 min -3,7 C -0,5 C 0,0 km/h (0 Bft)
27.03.2020 06:15 0,3 C 5,6 C -0,1 C 0,0 C -0,5 C 0,0 C 75 % 77 % 1023,4 hPa 0,0 l/m 0,0 km/h (0 Bft) NW 315 0 min -3,6 C -0,5 C 0,0 km/h (0 Bft)
27.03.2020 06:20 0,3 C 5,6 C 0,0 C 0,1 C -0,4 C 0,0 C 75 % 78 % 1023,1 hPa 0,0 l/m 0,5 km/h (0 Bft) N-NO 22 0 min -3,6 C -0,4 C 0,0 km/h (0 Bft)
27.03.2020 06:25 0,4 C 5,6 C 0,0 C 0,3 C 0,0 C 0,0 C 75 % 77 % 1023,1 hPa 0,0 l/m 0,5 km/h (0 Bft) N-NW 337 0 min -3,5 C 0,0 C 2,3 km/h (1 Bft)
27.03.2020 06:30 0,5 C 5,6 C 0,0 C 0,5 C 0,4 C 0,0 C 75 % 77 % 1023,1 hPa 0,0 l/m 0,5 km/h (0 Bft) W 270 0 min -3,4 C 0,4 C 0,0 km/h (0 Bft)
27.03.2020 06:35 0,8 C 5,6 C 0,3 C 1,2 C 1,2 C 0,4 C 75 % 77 % 1023,1 hPa 0,0 l/m 0,5 km/h (0 Bft) O-NO 67 0 min -3,1 C 1,2 C 0,0 km/h (0 Bft)
27.03.2020 06:40 1,1 C 5,6 C 0,6 C 1,7 C 1,7 C 0,6 C 75 % 77 % 1023,3 hPa 0,0 l/m 0,8 km/h (0 Bft) NO 45 0 min -2,8 C 1,7 C 2,1 km/h (1 Bft)
27.03.2020 06:45 1,2 C 5,6 C 0,9 C 2,4 C 2,4 C 1,2 C 75 % 77 % 1023,3 hPa 0,0 l/m 1,4 km/h (1 Bft) W 270 5 min -2,7 C 2,4 C 0,0 km/h (0 Bft)
27.03.2020 06:50 1,3 C 5,6 C 1,1 C 2,8 C 2,8 C 1,5 C 75 % 77 % 1023,3 hPa 0,0 l/m 1,1 km/h (1 Bft) O-NO 67 5 min -2,6 C 2,8 C 0,0 km/h (0 Bft)
27.03.2020 06:55 1,7 C 5,6 C 1,4 C 4,0 C 4,0 C 2,3 C 74 % 77 % 1023,3 hPa 0,0 l/m 0,0 km/h (0 Bft) NO 45 5 min -2,4 C 4,0 C 0,0 km/h (0 Bft)
27.03.2020 07:00 2,0 C 5,6 C 1,6 C 4,9 C 4,9 C 2,9 C 74 % 76 % 1023,6 hPa 0,0 l/m 0,0 km/h (0 Bft) SO 135 5 min -2,1 C 4,9 C 0,0 km/h (0 Bft)
27.03.2020 07:05 2,4 C 5,6 C 2,0 C 6,1 C 6,1 C 3,7 C 74 % 76 % 1023,6 hPa 0,0 l/m 0,0 km/h (0 Bft) N-NO 22 5 min -1,7 C 6,1 C 0,0 km/h (0 Bft)
27.03.2020 07:10 2,6 C 5,6 C 2,3 C 6,9 C 6,9 C 4,3 C 74 % 75 % 1023,6 hPa 0,0 l/m 0,0 km/h (0 Bft) N-NO 22 5 min -1,6 C 6,9 C 0,0 km/h (0 Bft)
27.03.2020 07:15 3,2 C 5,6 C 2,7 C 7,8 C 7,8 C 4,6 C 73 % 74 % 1023,6 hPa 0,0 l/m 0,2 km/h (0 Bft) W-SW 247 5 min -1,2 C 7,8 C 0,0 km/h (0 Bft)
27.03.2020 07:20 3,3 C 5,6 C 2,9 C 8,4 C 8,4 C 5,1 C 72 % 73 % 1023,8 hPa 0,0 l/m 0,2 km/h (0 Bft) N-NW 337 5 min -1,3 C 8,4 C 0,0 km/h (0 Bft)
27.03.2020 07:25 3,7 C 5,6 C 3,3 C 9,0 C 9,0 C 5,3 C 71 % 72 % 1023,8 hPa 0,0 l/m 0,3 km/h (0 Bft) N-NW 337 5 min -1,1 C 9,0 C 0,0 km/h (0 Bft)
27.03.2020 07:30 3,9 C 5,6 C 3,5 C 9,3 C 9,3 C 5,4 C 70 % 71 % 1023,8 hPa 0,0 l/m 0,8 km/h (0 Bft) O-NO 67 5 min -1,1 C 9,3 C 3,2 km/h (1 Bft)
27.03.2020 07:35 4,3 C 5,5 C 3,6 C 9,0 C 9,0 C 4,7 C 68 % 69 % 1023,8 hPa 0,0 l/m 1,9 km/h (1 Bft) O-NO 67 5 min -1,1 C 9,0 C 5,0 km/h (1 Bft)
27.03.2020 07:40 4,3 C 5,5 C 3,7 C 8,2 C 8,2 C 3,9 C 67 % 68 % 1023,4 hPa 0,0 l/m 2,7 km/h (1 Bft) NO 45 5 min -1,3 C 8,2 C 3,5 km/h (1 Bft)
27.03.2020 07:45 4,3 C 5,5 C 3,9 C 7,7 C 7,7 C 3,4 C 67 % 68 % 1023,4 hPa 0,0 l/m 3,7 km/h (1 Bft) NO 45 5 min -1,3 C 7,7 C 4,5 km/h (1 Bft)
27.03.2020 07:50 4,5 C 5,5 C 4,0 C 7,8 C 7,8 C 3,3 C 67 % 67 % 1023,4 hPa 0,0 l/m 3,9 km/h (1 Bft) O-NO 67 5 min -1,1 C 7,8 C 4,5 km/h (1 Bft)
27.03.2020 07:55 4,7 C 5,5 C 4,2 C 7,7 C 7,7 C 3,0 C 66 % 67 % 1023,4 hPa 0,0 l/m 4,7 km/h (1 Bft) O-NO 67 0 min -1,1 C 7,3 C 4,7 km/h (1 Bft)
27.03.2020 08:00 4,8 C 5,5 C 4,3 C 8,0 C 8,0 C 3,2 C 65 % 67 % 1023,5 hPa 0,0 l/m 4,7 km/h (1 Bft) NO 45 5 min -1,2 C 7,6 C 5,1 km/h (1 Bft)
27.03.2020 08:05 5,0 C 5,5 C 4,6 C 8,9 C 8,9 C 3,9 C 65 % 66 % 1023,5 hPa 0,0 l/m 4,2 km/h (1 Bft) N-NO 22 5 min -1,0 C 8,9 C 3,2 km/h (1 Bft)
27.03.2020 08:10 5,2 C 5,5 C 4,9 C 9,9 C 9,9 C 4,7 C 65 % 66 % 1023,5 hPa 0,0 l/m 3,2 km/h (1 Bft) O-NO 67 5 min -0,8 C 9,9 C 2,6 km/h (1 Bft)
27.03.2020 08:15 5,7 C 5,5 C 5,3 C 10,3 C 10,3 C 4,6 C 65 % 65 % 1023,5 hPa 0,0 l/m 2,3 km/h (1 Bft) NO 45 5 min -0,4 C 10,3 C 2,7 km/h (1 Bft)
27.03.2020 08:20 6,0 C 5,5 C 5,5 C 10,8 C 10,8 C 4,8 C 64 % 65 % 1023,6 hPa 0,0 l/m 1,9 km/h (1 Bft) NO 45 5 min -0,3 C 10,8 C 2,3 km/h (1 Bft)
27.03.2020 08:25 6,1 C 5,5 C 5,7 C 11,2 C 11,2 C 5,1 C 63 % 64 % 1023,6 hPa 0,0 l/m 1,8 km/h (1 Bft) N-NW 337 5 min -0,4 C 11,2 C 3,1 km/h (1 Bft)
27.03.2020 08:30 6,0 C 5,5 C 5,9 C 11,6 C 11,6 C 5,6 C 63 % 64 % 1023,6 hPa 0,0 l/m 1,9 km/h (1 Bft) NW 315 5 min -0,5 C 11,6 C 5,0 km/h (1 Bft)
27.03.2020 08:35 6,3 C 5,6 C 6,1 C 11,8 C 11,8 C 5,5 C 63 % 64 % 1023,6 hPa 0,0 l/m 1,4 km/h (1 Bft) NW 315 5 min -0,2 C 11,8 C 4,5 km/h (1 Bft)
27.03.2020 08:40 6,4 C 5,6 C 6,3 C 12,1 C 12,1 C 5,7 C 63 % 64 % 1023,8 hPa 0,0 l/m 1,4 km/h (1 Bft) NW 315 5 min -0,1 C 12,1 C 3,1 km/h (1 Bft)
27.03.2020 08:45 6,7 C 5,6 C 6,5 C 12,2 C 12,2 C 5,5 C 62 % 63 % 1023,8 hPa 0,0 l/m 2,1 km/h (1 Bft) N-NW 337 5 min -0,1 C 12,2 C 0,0 km/h (0 Bft)
27.03.2020 08:50 6,8 C 5,6 C 6,7 C 11,7 C 11,7 C 4,9 C 62 % 62 % 1023,8 hPa 0,0 l/m 2,1 km/h (1 Bft) W 270 5 min 0,0 C 11,7 C 1,6 km/h (1 Bft)
27.03.2020 08:55 7,2 C 5,6 C 7,2 C 11,0 C 11,0 C 3,8 C 62 % 61 % 1023,8 hPa 0,0 l/m 1,6 km/h (1 Bft) S-SW 202 5 min 0,4 C 11,0 C 2,1 km/h (1 Bft)
27.03.2020 09:00 7,5 C 5,6 C 7,5 C 11,4 C 11,4 C 3,9 C 61 % 61 % 1023,6 hPa 0,0 l/m 1,4 km/h (1 Bft) NO 45 5 min 0,5 C 11,4 C 2,1 km/h (1 Bft)
27.03.2020 09:05 7,6 C 5,6 C 7,9 C 12,0 C 12,0 C 4,4 C 61 % 60 % 1023,6 hPa 0,0 l/m 1,3 km/h (1 Bft) O-NO 67 5 min 0,6 C 12,0 C 3,4 km/h (1 Bft)
27.03.2020 09:10 7,9 C 5,5 C 8,1 C 12,3 C 12,3 C 4,4 C 61 % 58 % 1023,6 hPa 0,0 l/m 1,9 km/h (1 Bft) N-NO 22 5 min 0,9 C 12,3 C 2,9 km/h (1 Bft)
27.03.2020 09:15 8,3 C 5,5 C 8,7 C 12,5 C 12,5 C 4,2 C 60 % 57 % 1023,6 hPa 0,0 l/m 3,1 km/h (1 Bft) NO 45 5 min 1,0 C 12,5 C 3,4 km/h (1 Bft)
27.03.2020 09:20 8,5 C 5,5 C 9,2 C 12,4 C 12,4 C 3,9 C 60 % 56 % 1023,8 hPa 0,0 l/m 3,5 km/h (1 Bft) NO 45 5 min 1,2 C 12,4 C 7,1 km/h (2 Bft)
27.03.2020 09:25 8,8 C 5,6 C 9,6 C 12,2 C 12,2 C 3,4 C 59 % 55 % 1023,8 hPa 0,0 l/m 4,3 km/h (1 Bft) NO 45 5 min 1,2 C 12,2 C 5,1 km/h (1 Bft)
27.03.2020 09:30 9,3 C 5,6 C 9,9 C 12,4 C 12,4 C 3,1 C 58 % 54 % 1023,8 hPa 0,0 l/m 4,7 km/h (1 Bft) O-NO 67 0 min 1,5 C 12,4 C 5,1 km/h (1 Bft)
27.03.2020 09:35 9,5 C 5,6 C 10,5 C 12,6 C 12,6 C 3,1 C 57 % 53 % 1023,8 hPa 0,0 l/m 5,1 km/h (1 Bft) O-NO 67 0 min 1,4 C 12,6 C 7,4 km/h (2 Bft)
27.03.2020 09:40 9,6 C 5,6 C 11,1 C 12,1 C 12,1 C 2,5 C 56 % 51 % 1023,8 hPa 0,0 l/m 5,6 km/h (1 Bft) O-NO 67 0 min 1,3 C 12,1 C 7,9 km/h (2 Bft)
27.03.2020 09:45 9,9 C 5,6 C 11,6 C 12,2 C 12,2 C 2,3 C 55 % 49 % 1023,8 hPa 0,0 l/m 5,8 km/h (2 Bft) O-NO 67 0 min 1,3 C 12,2 C 6,1 km/h (2 Bft)
27.03.2020 09:50 10,1 C 5,6 C 12,0 C 12,7 C 12,7 C 2,6 C 55 % 49 % 1023,8 hPa 0,0 l/m 5,6 km/h (1 Bft) O-NO 67 0 min 1,5 C 12,7 C 7,2 km/h (2 Bft)
27.03.2020 09:55 10,5 C 5,7 C 12,6 C 12,7 C 12,7 C 2,2 C 55 % 47 % 1023,8 hPa 0,0 l/m 5,6 km/h (1 Bft) O-NO 67 0 min 1,8 C 12,7 C 5,8 km/h (2 Bft)
27.03.2020 10:00 10,7 C 5,7 C 12,5 C 12,8 C 12,8 C 2,1 C 55 % 48 % 1023,7 hPa 0,0 l/m 5,6 km/h (1 Bft) O-NO 67 0 min 2,0 C 12,8 C 8,0 km/h (2 Bft)
27.03.2020 10:05 11,1 C 5,7 C 12,5 C 13,7 C 13,7 C 2,6 C 53 % 47 % 1023,7 hPa 0,0 l/m 6,0 km/h (2 Bft) O-NO 67 0 min 1,9 C 13,7 C 6,9 km/h (2 Bft)
27.03.2020 10:10 11,2 C 5,7 C 12,5 C 13,4 C 13,4 C 2,2 C 52 % 46 % 1023,7 hPa 0,0 l/m 6,9 km/h (2 Bft) O-NO 67 0 min 1,7 C 13,4 C 7,9 km/h (2 Bft)
27.03.2020 10:15 11,3 C 5,7 C 12,1 C 13,5 C 13,3 C 2,2 C 51 % 47 % 1023,7 hPa 0,0 l/m 8,5 km/h (2 Bft) NO 45 0 min 1,5 C 13,3 C 13,0 km/h (3 Bft)
27.03.2020 10:20 11,5 C 5,7 C 12,0 C 13,3 C 13,1 C 1,8 C 51 % 47 % 1023,8 hPa 0,0 l/m 8,9 km/h (2 Bft) O-NO 67 0 min 1,7 C 13,1 C 11,3 km/h (2 Bft)
27.03.2020 10:25 11,6 C 5,8 C 12,0 C 13,3 C 13,2 C 1,7 C 51 % 48 % 1023,8 hPa 0,0 l/m 8,9 km/h (2 Bft) O-NO 67 0 min 1,8 C 13,2 C 15,1 km/h (3 Bft)
27.03.2020 10:30 11,8 C 5,8 C 12,6 C 13,2 C 12,9 C 1,4 C 51 % 48 % 1023,8 hPa 0,0 l/m 9,0 km/h (2 Bft) O-NO 67 0 min 2,0 C 12,9 C 6,4 km/h (2 Bft)
27.03.2020 10:35 12,0 C 5,8 C 13,5 C 13,4 C 13,5 C 1,4 C 51 % 45 % 1023,8 hPa 0,0 l/m 8,4 km/h (2 Bft) NO 45 0 min 2,2 C 13,5 C 11,3 km/h (2 Bft)
27.03.2020 10:40 12,2 C 5,8 C 13,4 C 14,6 C 14,6 C 2,4 C 51 % 46 % 1023,8 hPa 0,0 l/m 7,1 km/h (2 Bft) NO 45 0 min 2,4 C 14,6 C 6,0 km/h (2 Bft)
27.03.2020 10:45 12,5 C 5,8 C 13,4 C 15,2 C 15,2 C 2,7 C 52 % 48 % 1023,8 hPa 0,0 l/m 5,3 km/h (1 Bft) N-NW 337 0 min 2,9 C 15,2 C 4,5 km/h (1 Bft)
27.03.2020 10:50 12,5 C 5,9 C 13,1 C 15,0 C 15,0 C 2,5 C 52 % 48 % 1023,8 hPa 0,0 l/m 4,2 km/h (1 Bft) O-NO 67 0 min 2,9 C 15,0 C 6,3 km/h (2 Bft)
27.03.2020 10:55 12,4 C 5,9 C 12,7 C 14,9 C 14,9 C 2,5 C 52 % 50 % 1023,8 hPa 0,0 l/m 4,7 km/h (1 Bft) O-NO 67 0 min 2,8 C 14,9 C 5,8 km/h (2 Bft)
27.03.2020 11:00 12,5 C 5,9 C 13,2 C 15,2 C 15,2 C 2,7 C 52 % 49 % 1023,8 hPa 0,0 l/m 4,5 km/h (1 Bft) W-NW 292 0 min 2,9 C 15,2 C 5,1 km/h (1 Bft)
27.03.2020 11:05 12,6 C 5,9 C 15,0 C 15,6 C 15,6 C 3,0 C 52 % 45 % 1023,8 hPa 0,0 l/m 3,4 km/h (1 Bft) N-NO 22 0 min 3,0 C 15,6 C 6,8 km/h (2 Bft)
27.03.2020 11:10 12,6 C 6,0 C 15,7 C 15,6 C 15,6 C 3,0 C 52 % 44 % 1023,8 hPa 0,0 l/m 4,0 km/h (1 Bft) NO 45 0 min 3,0 C 15,6 C 5,6 km/h (1 Bft)
27.03.2020 11:15 12,7 C 6,0 C 16,2 C 15,8 C 15,8 C 3,1 C 51 % 41 % 1023,8 hPa 0,0 l/m 5,1 km/h (1 Bft) O-NO 67 0 min 2,8 C 15,8 C 6,3 km/h (2 Bft)
27.03.2020 11:20 12,7 C 6,0 C 16,0 C 16,0 C 16,0 C 3,3 C 51 % 42 % 1023,1 hPa 0,0 l/m 5,6 km/h (1 Bft) O-NO 67 5 min 2,8 C 16,0 C 8,4 km/h (2 Bft)
27.03.2020 11:25 12,9 C 6,0 C 16,6 C 16,3 C 16,3 C 3,4 C 52 % 41 % 1023,1 hPa 0,0 l/m 6,3 km/h (2 Bft) O 90 5 min 3,3 C 16,3 C 10,3 km/h (2 Bft)
27.03.2020 11:30 12,9 C 6,1 C 16,5 C 16,5 C 16,5 C 3,6 C 51 % 41 % 1023,1 hPa 0,0 l/m 6,8 km/h (2 Bft) NO 45 5 min 3,0 C 16,5 C 9,5 km/h (2 Bft)
27.03.2020 11:35 13,1 C 6,1 C 16,7 C 16,6 C 16,6 C 3,5 C 52 % 40 % 1023,1 hPa 0,0 l/m 7,4 km/h (2 Bft) O-NO 67 5 min 3,5 C 16,6 C 7,7 km/h (2 Bft)
27.03.2020 11:40 13,1 C 6,1 C 16,8 C 16,5 C 16,5 C 3,4 C 52 % 40 % 1023,1 hPa 0,0 l/m 7,6 km/h (2 Bft) NO 45 5 min 3,5 C 16,5 C 9,8 km/h (2 Bft)
27.03.2020 11:45 13,2 C 6,2 C 17,0 C 17,0 C 17,0 C 3,8 C 52 % 40 % 1023,1 hPa 0,0 l/m 6,3 km/h (2 Bft) O-NO 67 5 min 3,6 C 17,0 C 4,5 km/h (1 Bft)
27.03.2020 11:50 13,4 C 6,2 C 17,4 C 17,8 C 17,8 C 4,4 C 52 % 40 % 1023,1 hPa 0,0 l/m 5,3 km/h (1 Bft) O 90 5 min 3,7 C 17,8 C 6,4 km/h (2 Bft)
27.03.2020 11:55 13,7 C 6,2 C 17,0 C 18,3 C 18,3 C 4,6 C 51 % 40 % 1023,1 hPa 0,0 l/m 6,1 km/h (2 Bft) N-NO 22 5 min 3,8 C 18,3 C 9,7 km/h (2 Bft)
27.03.2020 12:00 13,9 C 6,2 C 16,9 C 18,0 C 18,0 C 4,1 C 50 % 40 % 1023,2 hPa 0,0 l/m 8,4 km/h (2 Bft) NO 45 5 min 3,7 C 18,0 C 10,5 km/h (2 Bft)
27.03.2020 12:05 13,9 C 6,3 C 17,1 C 18,0 C 18,0 C 4,1 C 50 % 41 % 1023,2 hPa 0,0 l/m 9,2 km/h (2 Bft) O-NO 67 5 min 3,7 C 18,0 C 17,7 km/h (3 Bft)
27.03.2020 12:10 14,3 C 6,3 C 16,7 C 18,3 C 18,3 C 4,0 C 49 % 40 % 1023,2 hPa 0,0 l/m 8,0 km/h (2 Bft) O-NO 67 5 min 3,7 C 18,3 C 9,8 km/h (2 Bft)
27.03.2020 12:15 14,4 C 6,3 C 16,7 C 18,7 C 18,7 C 4,3 C 49 % 42 % 1023,2 hPa 0,0 l/m 6,9 km/h (2 Bft) W-NW 292 5 min 3,8 C 18,7 C 5,8 km/h (2 Bft)
27.03.2020 12:20 14,7 C 6,4 C 16,9 C 19,1 C 19,1 C 4,4 C 49 % 41 % 1023,2 hPa 0,0 l/m 6,4 km/h (2 Bft) NO 45 5 min 4,1 C 19,1 C 4,3 km/h (1 Bft)
27.03.2020 12:25 14,9 C 6,4 C 17,1 C 19,4 C 19,4 C 4,5 C 49 % 42 % 1023,2 hPa 0,0 l/m 6,1 km/h (2 Bft) O-NO 67 5 min 4,3 C 19,4 C 7,6 km/h (2 Bft)
27.03.2020 12:30 15,1 C 6,4 C 17,1 C 19,8 C 19,8 C 4,7 C 48 % 41 % 1023,2 hPa 0,0 l/m 6,0 km/h (2 Bft) S-SO 157 5 min 4,2 C 19,8 C 4,8 km/h (1 Bft)
27.03.2020 12:35 15,2 C 6,5 C 17,3 C 19,9 C 19,9 C 4,7 C 48 % 40 % 1023,2 hPa 0,0 l/m 6,1 km/h (2 Bft) O-NO 67 5 min 4,3 C 19,9 C 7,6 km/h (2 Bft)
27.03.2020 12:40 15,3 C 6,5 C 17,3 C 19,9 C 19,9 C 4,6 C 47 % 40 % 1022,7 hPa 0,0 l/m 6,3 km/h (2 Bft) O-NO 67 5 min 4,1 C 19,9 C 7,2 km/h (2 Bft)
27.03.2020 12:45 15,4 C 6,5 C 17,7 C 19,9 C 19,9 C 4,5 C 47 % 40 % 1022,7 hPa 0,0 l/m 6,6 km/h (2 Bft) NO 45 5 min 4,1 C 19,9 C 7,6 km/h (2 Bft)
27.03.2020 12:50 15,5 C 6,5 C 17,5 C 20,0 C 20,0 C 4,5 C 47 % 40 % 1022,7 hPa 0,0 l/m 6,4 km/h (2 Bft) N 360 5 min 4,2 C 20,0 C 9,2 km/h (2 Bft)
27.03.2020 12:55 15,6 C 6,6 C 17,9 C 20,1 C 20,1 C 4,5 C 45 % 37 % 1022,7 hPa 0,0 l/m 7,6 km/h (2 Bft) O-SO 112 5 min 3,7 C 20,1 C 11,7 km/h (2 Bft)
27.03.2020 13:00 16,0 C 6,6 C 18,3 C 20,5 C 20,5 C 4,5 C 45 % 39 % 1022,6 hPa 0,0 l/m 7,4 km/h (2 Bft) O-NO 67 5 min 4,1 C 20,5 C 10,6 km/h (2 Bft)
27.03.2020 13:05 16,3 C 6,6 C 18,9 C 20,9 C 20,9 C 4,6 C 43 % 35 % 1022,6 hPa 0,0 l/m 6,3 km/h (2 Bft) O-NO 67 5 min 3,7 C 20,9 C 4,5 km/h (1 Bft)
27.03.2020 13:10 16,5 C 6,7 C 18,8 C 21,2 C 21,2 C 4,7 C 41 % 34 % 1022,6 hPa 0,0 l/m 6,8 km/h (2 Bft) O 90 5 min 3,2 C 21,2 C 7,9 km/h (2 Bft)
27.03.2020 13:15 16,6 C 6,7 C 18,4 C 20,8 C 20,8 C 4,2 C 40 % 34 % 1022,6 hPa 0,0 l/m 9,2 km/h (2 Bft) NO 45 5 min 2,9 C 20,8 C 18,2 km/h (3 Bft)
27.03.2020 13:20 16,6 C 6,8 C 18,1 C 20,6 C 20,6 C 4,0 C 39 % 34 % 1022,6 hPa 0,0 l/m 10,3 km/h (2 Bft) NO 45 5 min 2,6 C 20,6 C 9,8 km/h (2 Bft)
27.03.2020 13:25 16,8 C 6,7 C 18,4 C 20,5 C 20,5 C 3,7 C 39 % 34 % 1022,6 hPa 0,0 l/m 9,7 km/h (2 Bft) O-SO 112 5 min 2,8 C 20,5 C 9,8 km/h (2 Bft)
27.03.2020 13:30 16,9 C 6,7 C 18,4 C 20,9 C 20,9 C 4,0 C 39 % 34 % 1022,6 hPa 0,0 l/m 8,0 km/h (2 Bft) N-NO 22 5 min 2,9 C 20,9 C 10,3 km/h (2 Bft)
27.03.2020 13:35 17,0 C 6,9 C 18,3 C 21,0 C 21,0 C 4,0 C 38 % 34 % 1022,6 hPa 0,0 l/m 7,9 km/h (2 Bft) NO 45 5 min 2,6 C 21,0 C 24,9 km/h (4 Bft)
27.03.2020 13:40 17,1 C 6,9 C 17,9 C 20,8 C 20,8 C 3,7 C 38 % 34 % 1022,5 hPa 0,0 l/m 9,8 km/h (2 Bft) O-NO 67 5 min 2,7 C 20,8 C 12,2 km/h (2 Bft)
27.03.2020 13:45 17,0 C 6,9 C 17,6 C 20,6 C 20,6 C 3,6 C 38 % 35 % 1022,5 hPa 0,0 l/m 10,5 km/h (2 Bft) O-NO 67 5 min 2,6 C 20,6 C 12,2 km/h (2 Bft)
27.03.2020 13:50 16,9 C 7,0 C 17,5 C 20,4 C 20,4 C 3,5 C 37 % 35 % 1022,5 hPa 0,0 l/m 10,9 km/h (2 Bft) O-NO 67 5 min 2,1 C 20,4 C 12,9 km/h (3 Bft)
27.03.2020 13:55 17,1 C 6,9 C 17,5 C 20,6 C 20,6 C 3,5 C 38 % 36 % 1022,5 hPa 0,0 l/m 11,3 km/h (2 Bft) NO 45 5 min 2,7 C 20,6 C 12,6 km/h (3 Bft)
27.03.2020 14:00 17,2 C 6,9 C 17,5 C 20,7 C 20,7 C 3,5 C 37 % 35 % 1021,9 hPa 0,0 l/m 10,5 km/h (2 Bft) O-NO 67 5 min 2,4 C 20,7 C 14,2 km/h (3 Bft)
27.03.2020 14:05 17,2 C 7,0 C 17,3 C 20,6 C 20,6 C 3,4 C 37 % 35 % 1021,9 hPa 0,0 l/m 10,5 km/h (2 Bft) NO 45 5 min 2,4 C 20,6 C 11,9 km/h (2 Bft)
27.03.2020 14:10 17,2 C 7,0 C 17,4 C 20,7 C 20,7 C 3,5 C 37 % 34 % 1021,9 hPa 0,0 l/m 10,5 km/h (2 Bft) NO 45 5 min 2,4 C 20,7 C 11,1 km/h (2 Bft)
27.03.2020 14:15 17,2 C 7,1 C 17,3 C 20,6 C 20,6 C 3,4 C 37 % 35 % 1021,9 hPa 0,0 l/m 10,8 km/h (2 Bft) NO 45 5 min 2,4 C 20,6 C 17,2 km/h (3 Bft)
27.03.2020 14:20 17,2 C 7,1 C 17,2 C 20,5 C 20,5 C 3,3 C 37 % 36 % 1022,1 hPa 0,0 l/m 11,3 km/h (2 Bft) O-NO 67 5 min 2,4 C 20,5 C 23,7 km/h (4 Bft)
27.03.2020 14:25 17,2 C 7,1 C 17,2 C 20,4 C 20,4 C 3,2 C 36 % 35 % 1022,1 hPa 0,0 l/m 11,7 km/h (2 Bft) NO 45 0 min 2,0 C 20,4 C 9,8 km/h (2 Bft)
27.03.2020 14:30 17,2 C 7,2 C 17,2 C 20,4 C 20,4 C 3,2 C 36 % 35 % 1022,1 hPa 0,0 l/m 11,4 km/h (2 Bft) NO 45 0 min 2,0 C 20,4 C 14,2 km/h (3 Bft)
27.03.2020 14:35 17,3 C 7,2 C 17,2 C 20,4 C 20,4 C 3,1 C 36 % 35 % 1022,1 hPa 0,0 l/m 10,9 km/h (2 Bft) NO 45 0 min 2,1 C 20,4 C 11,9 km/h (2 Bft)
27.03.2020 14:40 17,2 C 7,2 C 17,2 C 20,4 C 20,4 C 3,2 C 36 % 36 % 1021,4 hPa 0,0 l/m 11,7 km/h (2 Bft) O-NO 67 0 min 2,0 C 20,4 C 19,0 km/h (3 Bft)
27.03.2020 14:45 17,2 C 7,2 C 17,2 C 20,3 C 20,3 C 3,1 C 36 % 35 % 1021,4 hPa 0,0 l/m 12,2 km/h (2 Bft) O-NO 67 0 min 2,0 C 20,3 C 15,8 km/h (3 Bft)
27.03.2020 14:50 17,2 C 7,4 C 17,2 C 20,3 C 20,3 C 3,1 C 36 % 36 % 1021,4 hPa 0,0 l/m 11,9 km/h (2 Bft) O-NO 67 0 min 2,0 C 20,3 C 15,4 km/h (3 Bft)
27.03.2020 14:55 17,4 C 7,4 C 17,2 C 20,5 C 20,5 C 3,1 C 37 % 37 % 1021,4 hPa 0,0 l/m 10,8 km/h (2 Bft) O-NO 67 0 min 2,6 C 20,5 C 14,3 km/h (3 Bft)
27.03.2020 15:00 17,4 C 7,4 C 17,2 C 20,4 C 20,4 C 3,0 C 37 % 35 % 1021,4 hPa 0,0 l/m 11,7 km/h (2 Bft) O-NO 67 0 min 2,6 C 20,4 C 21,6 km/h (4 Bft)
27.03.2020 15:05 17,3 C 7,5 C 17,1 C 20,3 C 20,3 C 3,0 C 37 % 37 % 1021,4 hPa 0,0 l/m 11,4 km/h (2 Bft) O-NO 67 0 min 2,5 C 20,3 C 8,9 km/h (2 Bft)
27.03.2020 15:10 17,3 C 7,5 C 17,1 C 20,3 C 20,3 C 3,0 C 37 % 37 % 1021,4 hPa 0,0 l/m 10,8 km/h (2 Bft) O-NO 67 0 min 2,5 C 20,3 C 11,1 km/h (2 Bft)
27.03.2020 15:15 17,3 C 7,5 C 17,1 C 20,3 C 20,3 C 3,0 C 37 % 36 % 1021,4 hPa 0,0 l/m 10,9 km/h (2 Bft) O-NO 67 0 min 2,5 C 20,3 C 17,4 km/h (3 Bft)
27.03.2020 15:20 17,3 C 7,5 C 17,1 C 20,3 C 20,3 C 3,0 C 37 % 36 % 1021,2 hPa 0,0 l/m 10,9 km/h (2 Bft) O-NO 67 0 min 2,5 C 20,3 C 9,2 km/h (2 Bft)
27.03.2020 15:25 17,5 C 7,6 C 17,1 C 20,4 C 20,4 C 2,9 C 37 % 37 % 1021,2 hPa 0,0 l/m 10,1 km/h (2 Bft) O-NO 67 0 min 2,7 C 20,4 C 8,5 km/h (2 Bft)
27.03.2020 15:30 17,4 C 7,6 C 17,1 C 20,5 C 20,5 C 3,1 C 37 % 38 % 1021,2 hPa 0,0 l/m 9,0 km/h (2 Bft) NO 45 0 min 2,6 C 20,5 C 7,7 km/h (2 Bft)
27.03.2020 15:35 17,4 C 7,6 C 17,1 C 20,5 C 20,5 C 3,1 C 38 % 38 % 1021,2 hPa 0,0 l/m 9,8 km/h (2 Bft) O-NO 67 0 min 2,9 C 20,5 C 12,7 km/h (3 Bft)
27.03.2020 15:40 17,5 C 7,6 C 17,1 C 20,5 C 20,5 C 3,0 C 38 % 37 % 1021,1 hPa 0,0 l/m 10,8 km/h (2 Bft) O 90 0 min 3,0 C 20,5 C 12,4 km/h (3 Bft)
27.03.2020 15:45 17,5 C 7,8 C 17,0 C 20,2 C 20,2 C 2,7 C 38 % 38 % 1021,1 hPa 0,0 l/m 11,4 km/h (2 Bft) N-NO 22 0 min 3,0 C 20,2 C 14,8 km/h (3 Bft)
27.03.2020 15:50 17,4 C 7,8 C 17,1 C 20,2 C 20,2 C 2,8 C 38 % 37 % 1021,1 hPa 0,0 l/m 11,4 km/h (2 Bft) O-NO 67 0 min 2,9 C 20,2 C 18,7 km/h (3 Bft)
27.03.2020 15:55 17,4 C 7,8 C 17,0 C 20,2 C 20,2 C 2,8 C 38 % 38 % 1021,1 hPa 0,0 l/m 9,5 km/h (2 Bft) NO 45 0 min 2,9 C 20,2 C 10,8 km/h (2 Bft)
27.03.2020 16:00 17,5 C 7,9 C 16,9 C 20,2 C 20,2 C 2,7 C 39 % 39 % 1020,9 hPa 0,0 l/m 8,9 km/h (2 Bft) NO 45 0 min 3,4 C 20,2 C 8,0 km/h (2 Bft)
27.03.2020 16:05 17,5 C 7,9 C 16,9 C 20,0 C 20,0 C 2,5 C 38 % 37 % 1020,9 hPa 0,0 l/m 8,0 km/h (2 Bft) NO 45 0 min 3,0 C 20,0 C 6,6 km/h (2 Bft)
27.03.2020 16:10 17,5 C 7,9 C 16,9 C 20,0 C 20,0 C 2,5 C 38 % 38 % 1020,9 hPa 0,0 l/m 7,2 km/h (2 Bft) NO 45 0 min 3,0 C 20,0 C 8,0 km/h (2 Bft)
27.03.2020 16:15 17,5 C 7,9 C 16,9 C 19,8 C 19,8 C 2,3 C 38 % 39 % 1020,9 hPa 0,0 l/m 8,0 km/h (2 Bft) O-NO 67 0 min 3,0 C 19,8 C 11,4 km/h (2 Bft)
27.03.2020 16:20 17,5 C 8,0 C 16,9 C 19,7 C 19,7 C 2,2 C 39 % 39 % 1020,9 hPa 0,0 l/m 8,7 km/h (2 Bft) NO 45 0 min 3,4 C 19,7 C 10,5 km/h (2 Bft)
27.03.2020 16:25 17,4 C 8,0 C 16,9 C 19,2 C 19,2 C 1,8 C 39 % 39 % 1020,9 hPa 0,0 l/m 8,4 km/h (2 Bft) N-NO 22 0 min 3,3 C 19,2 C 7,1 km/h (2 Bft)
27.03.2020 16:30 17,4 C 8,0 C 16,8 C 19,1 C 19,1 C 1,7 C 40 % 40 % 1020,9 hPa 0,0 l/m 7,9 km/h (2 Bft) NO 45 0 min 3,7 C 19,1 C 7,2 km/h (2 Bft)
27.03.2020 16:35 17,3 C 8,0 C 16,7 C 18,9 C 18,9 C 1,6 C 41 % 41 % 1020,9 hPa 0,0 l/m 6,3 km/h (2 Bft) NO 45 0 min 3,9 C 18,9 C 3,9 km/h (1 Bft)
27.03.2020 16:40 17,3 C 8,1 C 16,7 C 19,2 C 19,2 C 1,9 C 41 % 42 % 1021,1 hPa 0,0 l/m 5,3 km/h (1 Bft) O-SO 112 0 min 3,9 C 19,2 C 4,2 km/h (1 Bft)
27.03.2020 16:45 17,2 C 8,1 C 16,6 C 19,3 C 19,3 C 2,1 C 40 % 40 % 1021,1 hPa 0,0 l/m 4,8 km/h (1 Bft) O-NO 67 0 min 3,5 C 19,3 C 6,4 km/h (2 Bft)
27.03.2020 16:50 17,3 C 8,1 C 16,5 C 19,1 C 19,1 C 1,8 C 39 % 38 % 1021,1 hPa 0,0 l/m 6,0 km/h (2 Bft) NO 45 0 min 3,2 C 19,1 C 6,3 km/h (2 Bft)
27.03.2020 16:55 17,1 C 8,1 C 16,4 C 19,0 C 19,0 C 1,9 C 41 % 41 % 1021,1 hPa 0,0 l/m 6,1 km/h (2 Bft) NO 45 0 min 3,7 C 19,0 C 7,2 km/h (2 Bft)
27.03.2020 17:00 17,0 C 8,1 C 16,3 C 18,6 C 18,6 C 1,6 C 42 % 42 % 1020,8 hPa 0,0 l/m 5,5 km/h (1 Bft) O-NO 67 0 min 4,0 C 18,6 C 5,3 km/h (1 Bft)
27.03.2020 17:05 16,9 C 8,2 C 16,0 C 18,4 C 18,4 C 1,5 C 42 % 43 % 1020,8 hPa 0,0 l/m 5,3 km/h (1 Bft) N-NO 22 0 min 3,9 C 18,4 C 4,8 km/h (1 Bft)
27.03.2020 17:10 16,8 C 8,2 C 15,9 C 18,2 C 18,2 C 1,4 C 43 % 44 % 1020,8 hPa 0,0 l/m 5,1 km/h (1 Bft) N-NO 22 0 min 4,2 C 18,2 C 5,5 km/h (1 Bft)
27.03.2020 17:15 16,6 C 8,2 C 15,8 C 17,9 C 17,9 C 1,3 C 43 % 44 % 1020,8 hPa 0,0 l/m 4,7 km/h (1 Bft) O-NO 67 0 min 4,0 C 17,9 C 5,1 km/h (1 Bft)
27.03.2020 17:20 16,4 C 8,2 C 15,6 C 17,6 C 17,6 C 1,2 C 43 % 44 % 1021,0 hPa 0,0 l/m 4,8 km/h (1 Bft) O 90 0 min 3,8 C 17,6 C 6,1 km/h (2 Bft)
27.03.2020 17:25 16,2 C 8,3 C 15,4 C 17,3 C 17,3 C 1,1 C 44 % 44 % 1021,0 hPa 0,0 l/m 4,7 km/h (1 Bft) NO 45 0 min 3,9 C 17,3 C 4,8 km/h (1 Bft)
27.03.2020 17:30 16,1 C 8,3 C 15,3 C 17,2 C 17,2 C 1,1 C 44 % 45 % 1021,0 hPa 0,0 l/m 4,8 km/h (1 Bft) NO 45 0 min 3,8 C 17,2 C 4,8 km/h (1 Bft)
27.03.2020 17:35 15,9 C 8,3 C 15,1 C 16,8 C 16,8 C 0,9 C 44 % 45 % 1021,0 hPa 0,0 l/m 4,5 km/h (1 Bft) NO 45 0 min 3,7 C 16,8 C 5,5 km/h (1 Bft)
27.03.2020 17:40 15,9 C 8,3 C 14,9 C 16,6 C 16,6 C 0,7 C 44 % 46 % 1020,8 hPa 0,0 l/m 4,7 km/h (1 Bft) NO 45 0 min 3,7 C 16,6 C 4,7 km/h (1 Bft)
27.03.2020 17:45 15,6 C 8,3 C 14,7 C 16,3 C 16,3 C 0,7 C 45 % 46 % 1020,8 hPa 0,0 l/m 4,3 km/h (1 Bft) O-NO 67 0 min 3,7 C 16,3 C 4,0 km/h (1 Bft)
27.03.2020 17:50 15,5 C 8,3 C 14,5 C 16,1 C 16,1 C 0,6 C 45 % 46 % 1020,8 hPa 0,0 l/m 4,3 km/h (1 Bft) NO 45 0 min 3,6 C 16,1 C 7,6 km/h (2 Bft)
27.03.2020 17:55 15,3 C 8,4 C 14,3 C 15,8 C 15,8 C 0,5 C 45 % 47 % 1020,8 hPa 0,0 l/m 4,5 km/h (1 Bft) NO 45 0 min 3,4 C 15,8 C 3,5 km/h (1 Bft)
27.03.2020 18:00 15,2 C 8,4 C 14,2 C 15,5 C 15,5 C 0,3 C 46 % 47 % 1021,1 hPa 0,0 l/m 4,7 km/h (1 Bft) W-SW 247 0 min 3,7 C 15,5 C 7,9 km/h (2 Bft)
27.03.2020 18:05 14,9 C 8,4 C 13,9 C 15,0 C 15,0 C 0,1 C 46 % 48 % 1021,1 hPa 0,0 l/m 4,7 km/h (1 Bft) O 90 0 min 3,4 C 15,0 C 7,1 km/h (2 Bft)
27.03.2020 18:10 14,8 C 8,4 C 13,7 C 14,8 C 14,8 C 0,0 C 46 % 48 % 1021,1 hPa 0,0 l/m 4,8 km/h (1 Bft) NO 45 0 min 3,3 C 14,8 C 4,8 km/h (1 Bft)
27.03.2020 18:15 14,5 C 8,5 C 13,4 C 14,4 C 14,3 C 0,0 C 47 % 50 % 1021,1 hPa 0,0 l/m 4,5 km/h (1 Bft) NO 45 0 min 3,3 C 14,3 C 4,3 km/h (1 Bft)
27.03.2020 18:20 14,2 C 8,5 C 13,2 C 14,1 C 13,9 C 0,0 C 48 % 50 % 1020,9 hPa 0,0 l/m 4,2 km/h (1 Bft) NO 45 0 min 3,4 C 13,9 C 6,0 km/h (2 Bft)
27.03.2020 18:25 14,1 C 8,5 C 12,9 C 13,9 C 13,5 C 0,0 C 48 % 50 % 1020,9 hPa 0,0 l/m 4,7 km/h (1 Bft) NO 45 0 min 3,3 C 13,5 C 6,1 km/h (2 Bft)
27.03.2020 18:30 13,9 C 8,5 C 12,9 C 13,7 C 13,3 C 0,0 C 48 % 50 % 1020,9 hPa 0,0 l/m 4,8 km/h (1 Bft) NO 45 0 min 3,1 C 13,3 C 6,0 km/h (2 Bft)
27.03.2020 18:35 13,7 C 8,5 C 12,6 C 13,5 C 13,0 C 0,0 C 48 % 50 % 1020,9 hPa 0,0 l/m 5,1 km/h (1 Bft) N-NO 22 0 min 2,9 C 13,0 C 6,6 km/h (2 Bft)
27.03.2020 18:40 13,6 C 8,5 C 12,4 C 13,3 C 12,8 C 0,0 C 48 % 50 % 1021,5 hPa 0,0 l/m 5,1 km/h (1 Bft) O-NO 67 0 min 2,8 C 12,8 C 5,0 km/h (1 Bft)
27.03.2020 18:45 13,3 C 8,5 C 12,3 C 13,0 C 12,5 C 0,0 C 48 % 50 % 1021,5 hPa 0,0 l/m 4,8 km/h (1 Bft) NO 45 0 min 2,5 C 12,5 C 5,0 km/h (1 Bft)
27.03.2020 18:50 13,2 C 8,5 C 12,1 C 12,9 C 12,2 C 0,0 C 49 % 51 % 1021,5 hPa 0,0 l/m 4,8 km/h (1 Bft) O 90 0 min 2,7 C 12,2 C 5,5 km/h (1 Bft)
27.03.2020 18:55 13,1 C 8,5 C 11,9 C 12,7 C 12,0 C 0,0 C 49 % 51 % 1021,5 hPa 0,0 l/m 4,8 km/h (1 Bft) NO 45 0 min 2,6 C 12,0 C 5,3 km/h (1 Bft)
27.03.2020 19:00 12,8 C 8,5 C 11,8 C 12,5 C 11,9 C 0,0 C 49 % 51 % 1021,6 hPa 0,0 l/m 4,8 km/h (1 Bft) O-NO 67 0 min 2,4 C 11,9 C 8,7 km/h (2 Bft)
27.03.2020 19:05 12,7 C 8,6 C 11,6 C 12,4 C 11,7 C 0,0 C 49 % 52 % 1021,6 hPa 0,0 l/m 5,1 km/h (1 Bft) NO 45 0 min 2,3 C 11,7 C 6,4 km/h (2 Bft)
27.03.2020 19:10 12,6 C 8,6 C 11,5 C 12,3 C 11,6 C 0,0 C 49 % 52 % 1021,6 hPa 0,0 l/m 5,1 km/h (1 Bft) O-NO 67 0 min 2,2 C 11,6 C 3,7 km/h (1 Bft)
27.03.2020 19:15 12,4 C 8,6 C 11,3 C 12,1 C 11,4 C 0,0 C 50 % 52 % 1021,6 hPa 0,0 l/m 4,3 km/h (1 Bft) O-NO 67 0 min 2,3 C 11,4 C 4,3 km/h (1 Bft)
27.03.2020 19:20 12,3 C 8,6 C 11,1 C 11,9 C 11,2 C 0,0 C 50 % 53 % 1021,6 hPa 0,0 l/m 4,0 km/h (1 Bft) O-NO 67 0 min 2,2 C 11,2 C 3,9 km/h (1 Bft)
27.03.2020 19:25 12,0 C 8,6 C 10,9 C 11,7 C 11,0 C 0,0 C 51 % 53 % 1021,6 hPa 0,0 l/m 3,9 km/h (1 Bft) NO 45 0 min 2,2 C 11,0 C 4,5 km/h (1 Bft)
27.03.2020 19:30 11,9 C 8,6 C 10,8 C 11,6 C 10,9 C 0,0 C 51 % 54 % 1021,6 hPa 0,0 l/m 3,9 km/h (1 Bft) NO 45 0 min 2,1 C 10,9 C 4,8 km/h (1 Bft)
27.03.2020 19:35 11,7 C 8,6 C 10,7 C 11,4 C 10,7 C 0,0 C 51 % 54 % 1021,6 hPa 0,0 l/m 4,2 km/h (1 Bft) O-NO 67 0 min 1,9 C 10,7 C 6,8 km/h (2 Bft)
27.03.2020 19:40 11,6 C 8,6 C 10,6 C 11,3 C 10,6 C 0,0 C 52 % 54 % 1021,9 hPa 0,0 l/m 4,0 km/h (1 Bft) NO 45 0 min 2,1 C 10,6 C 3,1 km/h (1 Bft)
27.03.2020 19:45 11,5 C 8,6 C 10,3 C 11,1 C 10,4 C 0,0 C 52 % 55 % 1021,9 hPa 0,0 l/m 3,5 km/h (1 Bft) NO 45 0 min 2,0 C 10,4 C 3,4 km/h (1 Bft)
27.03.2020 19:50 11,3 C 8,6 C 10,2 C 10,9 C 10,2 C 0,0 C 53 % 55 % 1021,9 hPa 0,0 l/m 3,2 km/h (1 Bft) NO 45 0 min 2,1 C 10,2 C 2,7 km/h (1 Bft)
27.03.2020 19:55 11,1 C 8,7 C 9,8 C 10,7 C 9,9 C 0,0 C 53 % 57 % 1021,9 hPa 0,0 l/m 3,1 km/h (1 Bft) N-NO 22 0 min 1,9 C 9,9 C 3,2 km/h (1 Bft)
27.03.2020 20:00 10,9 C 8,7 C 9,6 C 10,5 C 9,7 C 0,0 C 54 % 57 % 1022,1 hPa 0,0 l/m 3,1 km/h (1 Bft) NO 45 0 min 2,0 C 9,7 C 3,5 km/h (1 Bft)
27.03.2020 20:05 10,7 C 8,7 C 9,3 C 10,3 C 9,5 C 0,0 C 55 % 58 % 1022,1 hPa 0,0 l/m 3,1 km/h (1 Bft) NO 45 0 min 2,0 C 9,5 C 2,7 km/h (1 Bft)
27.03.2020 20:10 10,5 C 8,7 C 9,2 C 10,1 C 9,4 C 0,0 C 55 % 58 % 1022,1 hPa 0,0 l/m 2,7 km/h (1 Bft) NO 45 0 min 1,8 C 9,4 C 3,1 km/h (1 Bft)
27.03.2020 20:15 10,4 C 8,6 C 9,0 C 10,0 C 9,2 C 0,0 C 55 % 59 % 1022,1 hPa 0,0 l/m 2,6 km/h (1 Bft) NO 45 0 min 1,8 C 9,2 C 2,3 km/h (1 Bft)
27.03.2020 20:20 10,3 C 8,6 C 8,9 C 9,9 C 9,0 C 0,0 C 55 % 59 % 1022,2 hPa 0,0 l/m 2,3 km/h (1 Bft) NO 45 0 min 1,7 C 9,0 C 2,3 km/h (1 Bft)
27.03.2020 20:25 10,0 C 8,6 C 8,6 C 9,6 C 8,9 C 0,0 C 56 % 60 % 1022,2 hPa 0,0 l/m 2,1 km/h (1 Bft) NO 45 0 min 1,6 C 8,9 C 3,1 km/h (1 Bft)
27.03.2020 20:30 10,0 C 8,6 C 8,6 C 9,6 C 8,8 C 0,0 C 56 % 60 % 1022,2 hPa 0,0 l/m 2,4 km/h (1 Bft) NO 45 0 min 1,6 C 8,8 C 2,7 km/h (1 Bft)
27.03.2020 20:35 9,9 C 8,6 C 8,5 C 9,5 C 8,7 C 0,0 C 56 % 61 % 1022,2 hPa 0,0 l/m 2,4 km/h (1 Bft) N-NO 22 0 min 1,5 C 8,7 C 2,4 km/h (1 Bft)
27.03.2020 20:40 9,8 C 8,6 C 8,4 C 9,4 C 8,6 C 0,0 C 57 % 61 % 1022,4 hPa 0,0 l/m 2,1 km/h (1 Bft) N 360 0 min 1,7 C 8,6 C 1,9 km/h (1 Bft)
27.03.2020 20:45 9,6 C 8,6 C 8,3 C 9,2 C 8,4 C 0,0 C 57 % 61 % 1022,4 hPa 0,0 l/m 1,8 km/h (1 Bft) NO 45 0 min 1,5 C 8,4 C 2,1 km/h (1 Bft)
27.03.2020 20:50 9,5 C 8,6 C 8,4 C 9,1 C 8,3 C 0,0 C 57 % 61 % 1022,4 hPa 0,0 l/m 1,4 km/h (1 Bft) NO 45 0 min 1,4 C 8,3 C 1,6 km/h (1 Bft)
27.03.2020 20:55 9,3 C 8,6 C 8,2 C 8,9 C 8,1 C 0,0 C 57 % 61 % 1022,4 hPa 0,0 l/m 1,0 km/h (0 Bft) O-NO 67 0 min 1,2 C 8,1 C 1,6 km/h (1 Bft)
27.03.2020 21:00 9,2 C 8,6 C 7,9 C 8,8 C 8,1 C 0,0 C 58 % 62 % 1022,2 hPa 0,0 l/m 0,5 km/h (0 Bft) O-NO 67 0 min 1,4 C 8,1 C 1,6 km/h (1 Bft)
27.03.2020 21:05 8,9 C 8,6 C 7,7 C 8,6 C 7,9 C 0,0 C 58 % 62 % 1022,2 hPa 0,0 l/m 0,3 km/h (0 Bft) O-NO 67 0 min 1,1 C 7,9 C 0,0 km/h (0 Bft)
27.03.2020 21:10 8,8 C 8,6 C 7,5 C 8,4 C 7,7 C 0,0 C 59 % 62 % 1022,2 hPa 0,0 l/m 0,3 km/h (0 Bft) NO 45 0 min 1,2 C 7,7 C 0,0 km/h (0 Bft)
27.03.2020 21:15 8,7 C 8,6 C 7,2 C 8,3 C 7,5 C 0,0 C 59 % 63 % 1022,2 hPa 0,0 l/m 0,2 km/h (0 Bft) NO 45 0 min 1,1 C 7,5 C 0,0 km/h (0 Bft)
27.03.2020 21:20 8,7 C 8,6 C 7,2 C 8,3 C 7,4 C 0,0 C 59 % 63 % 1022,4 hPa 0,0 l/m 0,0 km/h (0 Bft) NO 45 0 min 1,1 C 7,4 C 0,0 km/h (0 Bft)
27.03.2020 21:25 8,5 C 8,6 C 6,9 C 8,0 C 7,1 C 0,0 C 59 % 64 % 1022,4 hPa 0,0 l/m 0,0 km/h (0 Bft) O-NO 67 0 min 1,0 C 7,1 C 0,0 km/h (0 Bft)
27.03.2020 21:30 8,3 C 8,6 C 6,7 C 7,8 C 6,9 C 0,0 C 60 % 64 % 1022,4 hPa 0,0 l/m 0,0 km/h (0 Bft) O-NO 67 0 min 1,0 C 6,9 C 0,0 km/h (0 Bft)
27.03.2020 21:35 8,1 C 8,6 C 6,3 C 7,6 C 6,6 C 0,0 C 60 % 65 % 1022,4 hPa 0,0 l/m 0,0 km/h (0 Bft) O-NO 67 0 min 0,8 C 6,6 C 0,0 km/h (0 Bft)
27.03.2020 21:40 8,0 C 8,6 C 6,1 C 7,5 C 6,5 C 0,0 C 61 % 66 % 1022,5 hPa 0,0 l/m 0,0 km/h (0 Bft) O-NO 67 0 min 0,9 C 6,5 C 0,0 km/h (0 Bft)
27.03.2020 21:45 7,7 C 8,5 C 5,9 C 7,2 C 6,3 C 0,0 C 62 % 67 % 1022,5 hPa 0,0 l/m 0,0 km/h (0 Bft) O-NO 67 0 min 0,9 C 6,3 C 0,0 km/h (0 Bft)
27.03.2020 21:51 7,5 C 8,5 C 5,7 C 7,0 C 6,1 C 0,0 C 62 % 68 % 1022,5 hPa 0,0 l/m 0,0 km/h (0 Bft) O-NO 67 0 min 0,7 C 6,1 C 0,0 km/h (0 Bft)
27.03.2020 21:55 7,2 C 8,5 C 5,5 C 6,8 C 5,9 C 0,0 C 63 % 69 % 1022,5 hPa 0,0 l/m 0,0 km/h (0 Bft) O-NO 67 0 min 0,6 C 5,9 C 0,0 km/h (0 Bft)
27.03.2020 22:00 7,1 C 8,5 C 5,3 C 6,6 C 5,7 C 0,0 C 63 % 69 % 1022,3 hPa 0,0 l/m 0,0 km/h (0 Bft) NO 45 0 min 0,5 C 5,7 C 0,0 km/h (0 Bft)
27.03.2020 22:05 6,7 C 8,6 C 5,1 C 6,3 C 5,5 C 0,0 C 64 % 70 % 1022,3 hPa 0,0 l/m 0,0 km/h (0 Bft) NO 45 0 min 0,4 C 5,5 C 0,0 km/h (0 Bft)
27.03.2020 22:10 6,7 C 8,6 C 5,1 C 6,2 C 5,3 C 0,0 C 65 % 70 % 1022,3 hPa 0,0 l/m 0,0 km/h (0 Bft) NO 45 0 min 0,6 C 5,3 C 0,0 km/h (0 Bft)
27.03.2020 22:15 6,4 C 8,6 C 4,9 C 6,0 C 5,2 C 0,0 C 65 % 70 % 1022,3 hPa 0,0 l/m 0,0 km/h (0 Bft) O-NO 67 0 min 0,3 C 5,2 C 0,0 km/h (0 Bft)
27.03.2020 22:20 6,4 C 8,6 C 4,7 C 6,0 C 5,1 C 0,0 C 65 % 71 % 1022,3 hPa 0,0 l/m 0,0 km/h (0 Bft) O-NO 67 0 min 0,3 C 5,1 C 0,0 km/h (0 Bft)
27.03.2020 22:25 6,1 C 8,6 C 4,5 C 5,7 C 4,9 C 0,0 C 66 % 71 % 1022,3 hPa 0,0 l/m 0,0 km/h (0 Bft) NO 45 0 min 0,2 C 4,9 C 0,0 km/h (0 Bft)
27.03.2020 22:30 6,1 C 8,5 C 4,5 C 5,7 C 4,8 C 0,0 C 66 % 72 % 1022,3 hPa 0,0 l/m 0,0 km/h (0 Bft) NO 45 0 min 0,2 C 4,8 C 0,0 km/h (0 Bft)
27.03.2020 22:35 5,9 C 8,5 C 4,3 C 5,5 C 4,8 C 0,0 C 67 % 72 % 1022,3 hPa 0,0 l/m 0,0 km/h (0 Bft) O-NO 67 0 min 0,3 C 4,8 C 0,0 km/h (0 Bft)
27.03.2020 22:40 5,9 C 8,5 C 4,3 C 5,6 C 4,9 C 0,0 C 67 % 73 % 1022,4 hPa 0,0 l/m 0,0 km/h (0 Bft) O-NO 67 0 min 0,3 C 4,9 C 0,0 km/h (0 Bft)
27.03.2020 22:45 5,9 C 8,5 C 4,2 C 5,6 C 5,0 C 0,0 C 68 % 74 % 1022,4 hPa 0,0 l/m 0,0 km/h (0 Bft) O-NO 67 0 min 0,5 C 5,0 C 0,0 km/h (0 Bft)
27.03.2020 22:50 5,9 C 8,5 C 4,2 C 5,6 C 5,1 C 0,0 C 69 % 74 % 1022,4 hPa 0,0 l/m 0,2 km/h (0 Bft) O-NO 67 0 min 0,7 C 5,1 C 0,0 km/h (0 Bft)
27.03.2020 22:55 5,9 C 8,5 C 4,1 C 5,7 C 5,3 C 0,0 C 69 % 74 % 1022,4 hPa 0,0 l/m 0,2 km/h (0 Bft) O-NO 67 0 min 0,7 C 5,3 C 0,0 km/h (0 Bft)
27.03.2020 23:00 5,9 C 8,5 C 4,0 C 5,7 C 5,4 C 0,0 C 69 % 74 % 1022,2 hPa 0,0 l/m 0,5 km/h (0 Bft) O-NO 67 0 min 0,7 C 5,4 C 1,8 km/h (1 Bft)
27.03.2020 23:05 5,9 C 8,5 C 4,3 C 5,8 C 5,6 C 0,0 C 69 % 75 % 1022,2 hPa 0,0 l/m 1,1 km/h (1 Bft) O-NO 67 0 min 0,7 C 5,6 C 0,0 km/h (0 Bft)
27.03.2020 23:10 5,8 C 8,5 C 4,2 C 5,7 C 5,6 C 0,0 C 69 % 75 % 1022,2 hPa 0,0 l/m 1,0 km/h (0 Bft) O-NO 67 0 min 0,6 C 5,6 C 0,0 km/h (0 Bft)
27.03.2020 23:15 5,6 C 8,4 C 4,0 C 5,5 C 5,4 C 0,0 C 69 % 75 % 1022,2 hPa 0,0 l/m 0,2 km/h (0 Bft) O-NO 67 0 min 0,4 C 5,4 C 1,8 km/h (1 Bft)
27.03.2020 23:20 5,5 C 8,4 C 4,0 C 5,4 C 5,3 C 0,0 C 70 % 76 % 1022,5 hPa 0,0 l/m 0,6 km/h (0 Bft) O-NO 67 0 min 0,5 C 5,3 C 2,4 km/h (1 Bft)
27.03.2020 23:25 5,5 C 8,4 C 4,1 C 5,4 C 5,1 C 0,0 C 71 % 76 % 1022,5 hPa 0,0 l/m 2,1 km/h (1 Bft) O-NO 67 0 min 0,7 C 5,1 C 3,1 km/h (1 Bft)
27.03.2020 23:30 5,4 C 8,4 C 4,1 C 5,3 C 5,0 C 0,0 C 71 % 76 % 1022,5 hPa 0,0 l/m 2,4 km/h (1 Bft) NO 45 0 min 0,6 C 5,0 C 2,7 km/h (1 Bft)
27.03.2020 23:35 5,2 C 8,4 C 4,0 C 5,0 C 4,6 C 0,0 C 71 % 76 % 1022,5 hPa 0,0 l/m 1,3 km/h (1 Bft) O-NO 67 0 min 0,4 C 4,6 C 1,9 km/h (1 Bft)
27.03.2020 23:40 5,1 C 8,4 C 3,8 C 4,9 C 4,5 C 0,0 C 71 % 76 % 1022,2 hPa 0,0 l/m 0,6 km/h (0 Bft) O-NO 67 0 min 0,3 C 4,5 C 0,0 km/h (0 Bft)
27.03.2020 23:45 4,8 C 8,4 C 3,6 C 4,6 C 4,2 C 0,0 C 71 % 76 % 1022,2 hPa 0,0 l/m 0,3 km/h (0 Bft) O-NO 67 0 min -0,0 C 4,2 C 0,0 km/h (0 Bft)
27.03.2020 23:50 4,7 C 8,4 C 3,5 C 4,4 C 3,8 C 0,0 C 71 % 76 % 1022,2 hPa 0,0 l/m 0,0 km/h (0 Bft) NO 45 0 min -0,1 C 3,8 C 0,0 km/h (0 Bft)
27.03.2020 23:55 4,5 C 8,3 C 3,3 C 4,2 C 3,6 C 0,0 C 71 % 76 % 1022,2 hPa 0,0 l/m 0,0 km/h (0 Bft) O-NO 67 0 min -0,3 C 3,6 C 0,0 km/h (0 Bft)
_ Min-Zeit 04:45 07:35 04:40 04:40 04:40 00:00 14:25 13:10 17:00 - 00:10 - - - 04:00 04:40 00:00
Minimum _ -1,0 C 5,5 C -1,6 C -1,3 C -2,0 C 0,0 C 36 % 34 % 1020,8 hPa - 0,0 km/h (0 Bft) - - - -5,0 C -2,0 C 0,0 km/h (0 Bft)
_ Max-Zeit 15:25 19:55 13:05 13:10 13:10 08:40 05:10 05:05 00:00 00:00 14:45 - - 06:45 12:25 13:10 13:35
Maximum _ 17,5 C 8,7 C 18,9 C 21,2 C 21,2 C 5,7 C 77 % 80 % 1025,2 hPa 0,0 l/m 12,2 km/h
O-NO (2 Bft)
- - 5 min 4,3 C 21,2 C 24,9 km/h
NO (4 Bft)
Durchschnitt _ 8,5 C 6,9 C 8,2 C 9,8 C 9,4 C 1,5 C 58 % 59 % 1022,9 hPa #0,0 l/m 3,6 km/h (1 Bft) NO - #5:45 h 0,1 C 9,4 C 4,4 km/h (1 Bft)
2020 www.wetterstation-wechselburg.de